[[{"header":{"parameterUnit":"m.s-1","parameterCategory":1,"la1":30.2992,"la2":30.254,"lo1":-89.0895,"lo2":-89.0443,"dy":0.0025,"dx":0.0025,"nx":19,"ny":19,"refTime":"2026-04-15T09:00:00:Z","depth":0,"parameterNumber":2,"parameterNumberName":"U-component_of_WINDS"},"data":[0,0,0,0.5901,0.5904,0.6057,0.6058,0.6248,0.625,0,0,0,0,0,0,0,0,0,0,0,0.5851,0.5852,0.5901,0.5904,0.6057,0.6058,0.6248,0.625,0,0,0,0,0,0,0,0,0,0,0,0.585,0.5851,0.5853,0.5905,0.6057,0.6058,0.6247,0.6134,0,0,0,0,0,0,0,0,0,0,0.5987,0.5935,0.5851,0.5853,0.5906,0.6057,0.6058,0.6129,0.6141,0.6176,0,0.6203,0,0.6229,0.6262,0.6262,0,0,0,0.5909,0.5925,0.597,0.5853,0.5907,0.6057,0.599,0.6136,0.615,0.6192,0.6206,0.6213,0.6232,0.6263,0.6264,0.6441,0.6442,0,0,0.5901,0.5876,0.596,0.5979,0.5953,0.5985,0.5994,0.6145,0.6159,0.6207,0.6218,0.6235,0.6264,0.6266,0.6441,0.6441,0,0,0,0.5873,0.587,0.5912,0.5971,0.5999,0.5989,0.6,0.6152,0.6168,0.622,0.6238,0.6265,0.6267,0.644,0.6441,0.6447,0,0,0,0.5868,0.5854,0.5908,0.5895,0.5996,0.6077,0.6004,0.6157,0.6175,0.6237,0.6265,0.6269,0.6439,0.644,0.6446,0.6455,0,0,0,0.5843,0.5851,0.5871,0.5893,0.5958,0.6075,0.61,0.6162,0.6186,0.6263,0.627,0.6439,0.644,0.6444,0.6453,0.6495,0,0,0,0.5809,0.5876,0.5871,0.5953,0.5956,0.6077,0.6099,0.6191,0.6257,0.6266,0.6439,0.6441,0.6444,0.6451,0.6493,0.6526,0.6537,0,0,0.588,0.5884,0.5934,0.5934,0.6049,0.6055,0.6173,0.6258,0.6289,0.6389,0.6394,0.6446,0.6453,0.6494,0.6605,0.6614,0,0,0,0.5949,0.5985,0.6021,0.6081,0.6146,0.6203,0.6272,0.6303,0.6389,0.6334,0.6473,0.6477,0.6503,0.652,0.6527,0.6551,0.6447,0.6447,0.6447,0.6017,0.605,0.6136,0.6187,0.6246,0.6315,0.6366,0.642,0.6439,0.6471,0.6501,0.6565,0.6583,0.6589,0.6613,0.652,0.6521,0.6521,0.6521,0.6127,0.6183,0.6202,0.6293,0.6328,0.6404,0.6473,0.6483,0.6561,0.6545,0.6569,0.6549,0.6597,0.662,0.6521,0.6521,0.6521,0.6521,0.6521,0.6176,0.6209,0.6244,0.6334,0.64,0.6449,0.6522,0.6551,0.658,0.6604,0.664,0.664,0.6644,0.6618,0.6618,0.6619,0.6619,0.6619,0.6619,0.6214,0.6253,0.631,0.6382,0.6424,0.6484,0.6552,0.6595,0.6651,0.6667,0.6667,0.6682,0.6595,0.6573,0.6623,0.6622,0.6622,0.6621,0.6621,0.6315,0.6296,0.6384,0.6426,0.6513,0.6576,0.6611,0.6696,0.6735,0.677,0.6779,0.6709,0.6716,0.6711,0.6693,0.6771,0.6771,0.6771,0.6771,0.6358,0.6363,0.6458,0.6523,0.659,0.663,0.6729,0.6782,0.6835,0.6862,0.6854,0.6832,0.6825,0.6837,0.6828,0.6812,0.6919,0.6919,0.6919,0.6422,0.6435,0.6513,0.6562,0.6631,0.6691,0.6784,0.6859,0.6915,0.6926,0.6883,0.6877,0.6842,0.6829,0.6841,0.6828,0.6799,0,0]},{"header":{"parameterUnit":"m.s-1","parameterCategory":1,"la1":30.2992,"la2":30.254,"lo1":-89.0895,"lo2":-89.0443,"dy":0.0025,"dx":0.0025,"nx":19,"ny":19,"refTime":"2026-04-15T09:00:00:Z","depth":0,"parameterNumber":3,"parameterNumberName":"V-component_of_WINDS"},"data":[0,0,0,2.896,2.8966,2.9251,2.9252,2.9591,2.9593,0,0,0,0,0,0,0,0,0,0,0,2.8858,2.886,2.896,2.8966,2.9251,2.9252,2.959,2.9593,0,0,0,0,0,0,0,0,0,0,0,2.8857,2.8859,2.8861,2.8967,2.925,2.9252,2.9589,2.9384,0,0,0,0,0,0,0,0,0,0,2.9112,2.9,2.8859,2.8861,2.8969,2.925,2.9252,2.9375,2.9397,2.945,0,2.949,0,2.9547,2.9614,2.9615,0,0,0,2.898,2.8981,2.9074,2.8862,2.8971,2.925,2.9126,2.9388,2.9413,2.9479,2.9495,2.9508,2.9552,2.9616,2.9618,2.9872,2.9872,0,0,2.8965,2.89,2.9056,2.9089,2.9041,2.9117,2.9135,2.9403,2.9417,2.9496,2.9517,2.9558,2.9618,2.962,2.9871,2.9872,0,0,0,2.891,2.8889,2.8976,2.9075,2.9128,2.9125,2.9146,2.9405,2.9439,2.9521,2.9562,2.962,2.9624,2.9871,2.9871,2.9836,0,0,0,2.8901,2.8857,2.8968,2.8931,2.9122,2.927,2.9141,2.942,2.9453,2.956,2.962,2.9627,2.987,2.9871,2.9836,2.983,0,0,0,2.8846,2.8851,2.8886,2.8927,2.9047,2.9267,2.9316,2.9429,2.9477,2.9615,2.9628,2.987,2.9871,2.9835,2.983,2.988,0,0,0,2.8768,2.885,2.8884,2.8991,2.9044,2.9241,2.9315,2.9466,2.958,2.9622,2.987,2.9871,2.9835,2.983,2.9879,2.991,2.9917,0,0,2.8836,2.8856,2.8924,2.8963,2.9137,2.9203,2.9374,2.954,2.9613,2.9782,2.9789,2.9836,2.983,2.9879,2.9973,2.9977,0,0,0,2.8924,2.8972,2.9032,2.9137,2.9265,2.9375,2.9522,2.9584,2.973,2.9686,2.9868,2.9867,2.9898,2.9917,2.9921,2.9953,2.9876,2.9876,2.9876,2.8928,2.9015,2.9135,2.9257,2.9358,2.9508,2.9599,2.9709,2.9768,2.9809,2.9861,2.9906,2.9925,2.9928,2.9961,2.9883,2.9883,2.9883,2.9883,2.9036,2.9119,2.9195,2.9339,2.9431,2.9554,2.9702,2.974,2.9869,2.9875,2.9907,2.9906,2.9931,2.9964,2.9881,2.9881,2.9881,2.9881,2.9882,2.905,2.9105,2.9177,2.9339,2.9454,2.9575,2.9695,2.9776,2.9853,2.9884,2.9948,2.9949,2.9962,2.9909,2.9909,2.9909,2.9909,2.9909,2.9909,2.9036,2.9119,2.921,2.9352,2.9431,2.9544,2.9696,2.9777,2.9887,2.9936,2.9937,2.9994,2.9915,2.9895,2.9912,2.9912,2.9911,2.9911,2.9911,2.9116,2.9111,2.925,2.9329,2.9504,2.9614,2.9714,2.9871,2.9949,3.0006,3.0056,2.9984,3.0012,3.0009,2.9993,3.0035,3.0035,3.0035,3.0035,2.9129,2.915,2.9312,2.9432,2.956,2.9664,2.9822,2.9942,3.0065,3.0119,3.0124,3.0109,3.0103,3.0134,3.0129,3.0116,3.0188,3.0188,3.0188,2.9185,2.9221,2.9339,2.9457,2.96,2.9722,2.9873,3.0011,3.0149,3.0196,3.0164,3.0158,3.0134,3.0122,3.0168,3.0158,3.0135,0,0]}]]